TimeEST,TemperatureF,Dew PointF,Humidity,Sea Level PressureIn,VisibilityMPH,Wind Direction,Wind SpeedMPH,Gust SpeedMPH,PrecipitationIn,Events,Conditions,WindDirDegrees,DateUTC
12:54 AM,30.0,27.0,88,29.65,-9999.0,Calm,Calm,-,N/A,,Unknown,0,2013-03-01 05:54:00
1:54 AM,28.0,26.1,92,29.65,-9999.0,Calm,Calm,-,N/A,,Unknown,0,2013-03-01 06:54:00
2:54 AM,28.0,25.0,88,29.66,-9999.0,Calm,Calm,-,N/A,,Unknown,0,2013-03-01 07:54:00
3:54 AM,30.0,28.0,92,29.67,-9999.0,Calm,Calm,-,N/A,,Unknown,0,2013-03-01 08:54:00
4:54 AM,30.0,27.0,88,29.68,-9999.0,Calm,Calm,-,N/A,,Unknown,0,2013-03-01 09:54:00
5:54 AM,35.1,28.0,76,29.68,-9999.0,Variable,4.6,-,N/A,,Unknown,0,2013-03-01 10:54:00
6:54 AM,34.0,27.0,75,29.69,-9999.0,North,3.5,-,N/A,,Unknown,10,2013-03-01 11:54:00
7:54 AM,36.0,27.0,70,29.71,-9999.0,NNW,4.6,-,N/A,,Unknown,340,2013-03-01 12:54:00
8:54 AM,37.0,27.0,67,29.72,-9999.0,NNW,8.1,-,N/A,,Unknown,340,2013-03-01 13:54:00
9:54 AM,41.0,27.0,57,29.72,-9999.0,NW,9.2,18.4,N/A,,Unknown,310,2013-03-01 14:54:00
10:54 AM,39.9,26.1,58,29.73,-9999.0,NNW,8.1,-,N/A,,Unknown,340,2013-03-01 15:54:00
11:54 AM,41.0,25.0,53,29.73,-9999.0,NNW,9.2,17.3,N/A,,Unknown,330,2013-03-01 16:54:00
12:54 PM,42.1,25.0,51,29.72,-9999.0,North,8.1,16.1,N/A,,Unknown,350,2013-03-01 17:54:00
1:54 PM,39.9,25.0,55,29.73,-9999.0,Variable,4.6,-,N/A,,Unknown,0,2013-03-01 18:54:00
2:54 PM,39.9,26.1,58,29.73,-9999.0,North,6.9,-,N/A,,Unknown,350,2013-03-01 19:54:00
3:54 PM,39.0,27.0,62,29.74,-9999.0,NNW,5.8,-,N/A,,Unknown,340,2013-03-01 20:54:00
4:54 PM,37.9,27.0,65,29.75,-9999.0,Variable,3.5,-,N/A,,Unknown,0,2013-03-01 21:54:00
5:54 PM,37.0,26.1,65,29.77,-9999.0,NNW,8.1,-,N/A,,Unknown,340,2013-03-01 22:54:00
7:54 PM,36.0,24.1,62,29.80,-9999.0,Calm,Calm,-,N/A,,Unknown,0,2013-03-02 00:54:00
8:54 PM,35.1,23.0,61,29.81,-9999.0,Variable,3.5,-,N/A,,Unknown,0,2013-03-02 01:54:00
9:54 PM,34.0,23.0,64,29.83,-9999.0,North,6.9,-,N/A,,Unknown,360,2013-03-02 02:54:00
10:54 PM,33.1,23.0,66,29.82,-9999.0,North,6.9,-,N/A,,Unknown,350,2013-03-02 03:54:00
11:54 PM,33.1,21.9,64,29.82,-9999.0,North,3.5,-,N/A,,Unknown,360,2013-03-02 04:54:00